Regional Weather Roundup
Issued by NWS

Home | Current Version | Previous Version | Text Only | Print | Product List | Glossary On
Versions: 1 2 3 4 5 6 7 8 9 10 11 12 13 14 15 16 17 18 19 20 21 22 23 24 25 26 27 28 29 30 31 32 33 34 35 36 37 38 39 40 41 42 43 44 45 46 47 48 49 50
286
ASUS45 KBOU 232210
RWRCO

WEATHER ROUNDUP FOR COLORADO
NATIONAL WEATHER SERVICE DENVER/BOULDER CO
300 PM MST TUE JAN 23 2018

NOTE: "FAIR" INDICATES FEW OR NO CLOUDS BELOW 12000 FEET WITH NO
SIGNIFICANT WEATHER AND/OR OBSTRUCTIONS TO VISIBILITY.

COZ001>005-013-030-031-232300-
...NORTHWEST COLORADO...

CITY           SKY/WX    TMP DP  RH WIND       PRES   REMARKS
CRAIG          FAIR      25  14  63 CALM      30.31S
HAYDEN         FAIR      23  15  71 SW6       30.30S WCI  16
MEEKER         FAIR      28  18  66 CALM      30.29S
RABBIT EARS PA CLOUDY   N/A N/A N/A W10G22    30.17S HAZE
STEAMBOAT SPGS FAIR      28  12  50 CALM      30.27S
WALDEN         FAIR      25   5  42 SW9       30.22S WCI  15
$$

COZ006>008-011-232300-
...WEST CENTRAL VALLEYS...

CITY           SKY/WX    TMP DP  RH WIND       PRES   REMARKS
GRAND JUNCTION FAIR      32  24  72 N5        30.33F WCI  27
MONTROSE       FAIR      38  10  31 N6        30.32S
EAGLE          FAIR      36  10  34 SW14G20   30.27F
RIFLE          FAIR      37  17  44 W6        30.31S
DELTA          FAIR      42  11  28 CALM      30.32S
NUCLA          FAIR      36  18  48 NW6       30.33F
$$

COZ017>023-064>068-232300-
...SOUTHWEST COLORADO...

CITY           SKY/WX    TMP DP  RH WIND       PRES   REMARKS
DURANGO        FAIR      33  20  58 NE8       30.24F WCI  26
CORTEZ         FAIR      38  21  50 S7        30.26S
PAGOSA SPRINGS FAIR      32  17  53 CALM      30.24S
TELLURIDE      FAIR      32   7  34 SW5       30.25S WCI  27
WOLF CREEK PAS FAIR      21 -13  21 CALM      30.27R
$$

COZ009-010-012-014-032>034-037-058>063-232300-
...CENTRAL COLORADO...

CITY           SKY/WX    TMP DP  RH WIND       PRES   REMARKS
ASPEN          FAIR      33   6  32 N7        30.24S WCI  27
BUENA VISTA    FAIR      32   4  30 CALM      30.19S
COPPER MTN     NOT AVBL
BERTHOUD PASS  FAIR       3  -8  60 NW38G44   30.09R HAZE    WCI -24
COTTONWOOD PAS FAIR      32   3  29 E5        30.18S WCI  27
GUNNISON       FAIR      28  12  51 NE6       30.26F WCI  22
KREMMLING      FAIR      36  16  44 CALM      30.26S
LEADVILLE      FAIR      21   4  47 NW16G23   30.18R WCI   7
MONARCH PASS     N/A     12   9  85 SW26G36   30.27R WCI  -8
SALIDA         FAIR      37  10  32 SW12      30.27S
SUNLIGHT       FAIR      16   9  73 SW3       30.26S
WILKERSON PASS FAIR      19  -4  35 W5        30.19R WCI  13
$$

COZ069>075-232300-
...SAN LUIS VALLEY/SANGRE DE CRISTO MOUNTAINS...

CITY           SKY/WX    TMP DP  RH WIND       PRES   REMARKS
ALAMOSA        FAIR      34   8  33 VRB3      30.23S
DEL NORTE      FAIR      34   3  27 E8G18     30.22S WCI  28
LA VETA PASS   FAIR      27   3  36 SW22G28     N/A  WCI  12
SAGUACHE       FAIR      34  10  37 SE3       30.23S
$$

COZ035-036-038>040-232300-
...NORTHERN COLORADO FRONT RANGE...

CITY           SKY/WX    TMP DP  RH WIND       PRES   REMARKS
DENVER INTL AP FAIR      34  16  47 E12       30.20R WCI  25
DMNS CITY PARK NOT AVBL
AURORA         MOSUNNY   36  14  41 E12       30.19S
FRONT RANGE AP MOSUNNY   37  19  48 E8        30.21R
ERIE MUNI ARPT FAIR      40  14  35 E12       30.24S
BOULDER MUN AP FAIR      43  10  26 S6        30.17R
CENTENNIAL     FAIR      37   9  31 E3        30.18S
BROOMFIELD     MOSUNNY   41   9  26 W5        30.19R
FORT COLLINS   FAIR      38  20  48 SE8       30.20S
LONGMONT       FAIR      42  16  36 E10       30.21S
$$

COZ041-046-047-076>085-087-088-232300-
...PIKES PEAK/PALMER DIVIDE AND SOUTHERN FOOTHILLS...

CITY           SKY/WX    TMP DP  RH WIND       PRES   REMARKS
COLO. SPRINGS  FAIR      41   8  25 S9        30.20R
A. F. ACADEMY  FAIR      38   7  28 S10       30.17S
SCHRIEVER AFB  FAIR      38   2  22 SE6       30.20S
CHEYENNE MTN   FAIR      35   6  30 SE10      30.13R WCI  27
ELLICOTT         N/A    N/A N/A N/A SE7       30.19S
FALCON         FAIR      37   1  22 E3        30.20R
FORT CARSON    FAIR      42   6  22 S10       30.18S
LIMON          FAIR      37   9  31 N3        30.22S
MONUMENT HILL  FAIR      30   5  34 E5        30.20R WCI  25
CANON CITY     FAIR      46  10  23 CALM      30.17S
WALSENBURG     NOT AVBL
TRINIDAD       FAIR      43   8  23 SE7       30.20S
$$

COZ042>045-048>051-090-091-232300-
...NORTHEAST COLORADO...

CITY           SKY/WX    TMP DP  RH WIND       PRES   REMARKS
GREELEY ARPT   NOT AVBL
AKRON          FAIR      36  21  54 N14       30.22R
BURLINGTON     FAIR      35  22  58 NW12      30.24S WCI  27
WRAY           FAIR      39  23  52 NW12      30.24R
YUMA           FAIR      36  21  55 NW12      30.22S
STERLING       FAIR      37  23  56 NW20      30.22R
HOLYOKE        FAIR      41  23  48 NW12      30.23R
FORT MORGAN    FAIR      40  15  36 N18       30.22S
$$

COZ086-089-092>099-232300-
...SOUTHEAST COLORADO...

CITY           SKY/WX    TMP DP  RH WIND       PRES   REMARKS
PUEBLO         FAIR      46   5  18 SE6       30.20S
LA JUNTA       FAIR      45  14  28 E10       30.23F
LAMAR          FAIR      44  12  27 CALM      30.25S
SPRINGFIELD      N/A     44  12  27 E3        30.25R
$$




USA.gov is the U.S. government's official web portal to all federal, state and local government web resources and services.